Regional Weather Roundup
Issued by NWS

Home | Current Version | Previous Version | Graphics & Text | Print | Product List | Glossary On
Versions: 1 2 3 4 5 6 7 8 9 10 11 12 13 14 15 16 17 18 19 20 21 22 23 24 25 26 27 28 29 30 31 32 33 34 35 36 37 38 39 40 41 42 43 44 45 46 47 48 49 50
652
ASUS43 KBIS 250502
RWRND

NORTH DAKOTA REGIONAL WEATHER ROUNDUP
NATIONAL WEATHER SERVICE BISMARCK ND
1200 AM CDT SUN SEP 25 2016

NOTE: "FAIR" INDICATES FEW OR NO CLOUDS BELOW 12,000 FEET WITH NO
SIGNIFICANT WEATHER AND/OR OBSTRUCTIONS TO VISIBILITY.


NDZ001>003-009>011-017-250600-
NORTHWEST NORTH DAKOTA

CITY           SKY/WX    TMP DP  RH WIND       PRES   REMARKS
WILLISTON      RAIN      51  47  86 NW28G40   29.91R FOG
MINOT          CLOUDY    57  54  89 NW16      29.75S
MINOT AFB      CLOUDY    56  53  89 N15       29.74S
$$

NDZ018>021-031>035-040>046-250600-
SOUTHWEST NORTH DAKOTA

CITY           SKY/WX    TMP DP  RH WIND       PRES   REMARKS
BISMARCK       PTCLDY    55  49  80 SW8       29.75S
DICKINSON      LGT RAIN  49  48  97 NW24G36   29.84R FOG
GARRISON         N/A     56  56 100 N16       29.74R
HETTINGER ARPT RAIN      49  47  93 NW32G44   29.87R FOG
$$

NDZ004>008-012>016-024-026-027-054-250600-
NORTHEAST NORTH DAKOTA

CITY           SKY/WX    TMP DP  RH WIND       PRES   REMARKS
GRAND FORKS    CLOUDY    68  65  90 S13       29.73S
GRND FRKS AFB  CLOUDY    68  67  96 S12       29.73R
DEVILS LAKE    CLEAR     61  58  90 S8        29.72S
$$

NDZ022-023-025-028>030-036>039-047>053-250600-
SOUTHEAST NORTH DAKOTA

CITY           SKY/WX    TMP DP  RH WIND       PRES   REMARKS
FARGO          CLOUDY    69  66  90 S16G22    29.78F
JAMESTOWN      CLEAR     59  49  69 SW13      29.75R
$$





USA.gov is the U.S. government's official web portal to all federal, state and local government web resources and services.